TimeCST,TemperatureF,Dew PointF,Humidity,Sea Level PressureIn,VisibilityMPH,Wind Direction,Wind SpeedMPH,Gust SpeedMPH,PrecipitationIn,Events,Conditions,WindDirDegrees,DateUTC
12:15 AM,52.9,36.1,53,30.10,10.0,North,11.5,-,N/A,,Clear,360,2014-02-21 06:15:00
12:35 AM,51.4,36.3,56,30.11,10.0,North,6.9,-,N/A,,Clear,360,2014-02-21 06:35:00
12:55 AM,51.6,36.3,56,30.11,10.0,NNE,5.8,-,N/A,,Clear,20,2014-02-21 06:55:00
1:15 AM,49.5,36.5,61,30.12,10.0,North,3.5,-,N/A,,Clear,10,2014-02-21 07:15:00
1:35 AM,48.6,37.0,64,30.12,10.0,Calm,Calm,-,N/A,,Clear,0,2014-02-21 07:35:00
1:55 AM,46.8,37.6,70,30.11,10.0,Calm,Calm,-,N/A,,Clear,0,2014-02-21 07:55:00
2:15 AM,44.1,38.1,80,30.11,10.0,Calm,Calm,-,N/A,,Clear,0,2014-02-21 08:15:00
2:35 AM,41.5,38.5,89,30.11,10.0,Calm,Calm,-,N/A,,Clear,0,2014-02-21 08:35:00
2:55 AM,41.4,37.8,87,30.11,10.0,Calm,Calm,-,N/A,,Clear,0,2014-02-21 08:55:00
3:15 AM,40.6,38.5,92,30.11,10.0,Calm,Calm,-,N/A,,Clear,0,2014-02-21 09:15:00
3:35 AM,40.3,38.3,93,30.11,10.0,Calm,Calm,-,N/A,,Clear,0,2014-02-21 09:35:00
3:55 AM,39.2,37.0,92,30.11,10.0,Calm,Calm,-,N/A,,Clear,0,2014-02-21 09:55:00
4:15 AM,37.9,36.9,96,30.11,10.0,WNW,3.5,-,N/A,,Clear,290,2014-02-21 10:15:00
4:35 AM,37.9,36.5,95,30.13,10.0,Calm,Calm,-,N/A,,Clear,0,2014-02-21 10:35:00
4:55 AM,37.2,36.5,97,30.14,10.0,Calm,Calm,-,N/A,,Clear,0,2014-02-21 10:55:00
5:15 AM,37.0,36.0,96,30.14,10.0,Calm,Calm,-,N/A,,Clear,0,2014-02-21 11:15:00
5:35 AM,36.0,35.2,97,30.15,10.0,Calm,Calm,-,N/A,,Clear,0,2014-02-21 11:35:00
5:55 AM,35.8,35.2,98,30.15,10.0,Calm,Calm,-,N/A,,Clear,0,2014-02-21 11:55:00
6:15 AM,35.6,35.2,99,30.15,10.0,Calm,Calm,-,N/A,,Clear,0,2014-02-21 12:15:00
6:35 AM,34.7,34.5,99,30.16,10.0,Calm,Calm,-,N/A,,Clear,0,2014-02-21 12:35:00
6:55 AM,34.3,34.2,99,30.16,10.0,Calm,Calm,-,N/A,,Clear,0,2014-02-21 12:55:00
7:15 AM,34.9,34.7,99,30.16,10.0,Calm,Calm,-,N/A,,Clear,0,2014-02-21 13:15:00
7:35 AM,36.0,35.6,99,30.16,10.0,Calm,Calm,-,N/A,,Clear,0,2014-02-21 13:35:00
7:55 AM,39.9,37.8,92,30.16,10.0,Calm,Calm,-,N/A,,Clear,0,2014-02-21 13:55:00
8:15 AM,43.9,40.1,87,30.17,10.0,Calm,Calm,-,N/A,,Clear,0,2014-02-21 14:15:00
8:35 AM,47.7,42.8,83,30.18,10.0,Calm,Calm,-,N/A,,Clear,0,2014-02-21 14:35:00
8:55 AM,51.3,41.7,70,30.18,10.0,North,3.5,-,N/A,,Clear,360,2014-02-21 14:55:00
9:15 AM,53.6,39.0,58,30.19,10.0,North,4.6,-,N/A,,Clear,350,2014-02-21 15:15:00
9:35 AM,55.8,35.2,46,30.19,10.0,NNW,4.6,-,N/A,,Clear,340,2014-02-21 15:35:00
9:55 AM,58.3,29.1,33,30.19,10.0,North,5.8,-,N/A,,Clear,10,2014-02-21 15:55:00
10:15 AM,58.5,28.2,32,30.18,10.0,NE,10.4,-,N/A,,Clear,40,2014-02-21 16:15:00
10:35 AM,59.2,29.7,33,30.18,10.0,North,5.8,-,N/A,,Clear,10,2014-02-21 16:35:00
10:55 AM,60.4,26.2,27,30.18,10.0,North,3.5,-,N/A,,Clear,360,2014-02-21 16:55:00
11:15 AM,60.8,27.0,28,30.17,10.0,East,8.1,-,N/A,,Clear,90,2014-02-21 17:15:00
11:35 AM,61.5,26.6,27,30.16,10.0,NE,5.8,-,N/A,,Clear,50,2014-02-21 17:35:00
11:55 AM,62.4,23.0,22,30.16,10.0,ENE,9.2,-,N/A,,Clear,70,2014-02-21 17:55:00
12:15 PM,62.1,21.2,21,30.15,10.0,Calm,Calm,-,N/A,,Clear,0,2014-02-21 18:15:00
12:35 PM,62.8,21.4,20,30.14,10.0,Calm,Calm,-,N/A,,Clear,0,2014-02-21 18:35:00
12:55 PM,64.2,24.4,22,30.12,5.0,ENE,6.9,-,N/A,,Haze,70,2014-02-21 18:55:00
1:15 PM,64.0,22.6,21,30.11,10.0,NE,5.8,-,N/A,,Clear,50,2014-02-21 19:15:00
1:35 PM,64.8,24.3,22,30.11,10.0,ESE,3.5,-,N/A,,Clear,110,2014-02-21 19:35:00
1:55 PM,64.9,23.4,21,30.11,10.0,WSW,3.5,-,N/A,,Clear,240,2014-02-21 19:55:00
2:15 PM,65.3,25.0,22,30.10,10.0,ESE,6.9,-,N/A,,Clear,110,2014-02-21 20:15:00
2:35 PM,65.5,24.1,21,30.09,10.0,ESE,5.8,-,N/A,,Clear,110,2014-02-21 20:35:00
2:55 PM,64.9,20.1,18,30.09,10.0,Calm,Calm,-,N/A,,Clear,0,2014-02-21 20:55:00
3:15 PM,65.5,21.4,19,30.08,10.0,Calm,Calm,-,N/A,,Clear,0,2014-02-21 21:15:00
3:35 PM,65.8,23.4,20,30.08,10.0,SE,4.6,-,N/A,,Clear,130,2014-02-21 21:35:00
3:55 PM,65.8,24.3,21,30.07,10.0,East,4.6,-,N/A,,Clear,80,2014-02-21 21:55:00
4:15 PM,66.0,25.0,21,30.07,10.0,Calm,Calm,-,N/A,,Clear,0,2014-02-21 22:15:00
4:35 PM,65.5,23.2,20,30.07,10.0,Calm,Calm,-,N/A,,Clear,0,2014-02-21 22:35:00
4:55 PM,65.5,24.1,21,30.07,10.0,SW,3.5,-,N/A,,Clear,220,2014-02-21 22:55:00
5:15 PM,64.2,24.8,22,30.08,10.0,South,3.5,-,N/A,,Clear,180,2014-02-21 23:15:00
5:35 PM,61.3,25.2,25,30.08,10.0,South,4.6,-,N/A,,Clear,180,2014-02-21 23:35:00
5:55 PM,59.0,28.6,31,30.07,10.0,South,3.5,-,N/A,,Clear,190,2014-02-21 23:55:00
6:15 PM,56.8,28.9,34,30.07,10.0,Calm,Calm,-,N/A,,Clear,0,2014-02-22 00:15:00
6:35 PM,52.3,32.5,47,30.07,10.0,Calm,Calm,-,N/A,,Clear,0,2014-02-22 00:35:00
6:55 PM,50.7,32.9,51,30.07,10.0,Calm,Calm,-,N/A,,Clear,0,2014-02-22 00:55:00
7:15 PM,47.5,33.8,59,30.08,10.0,WNW,3.5,-,N/A,,Clear,290,2014-02-22 01:15:00
7:35 PM,47.8,37.8,68,30.08,10.0,Calm,Calm,-,N/A,,Clear,0,2014-02-22 01:35:00
7:55 PM,46.2,36.7,69,30.09,10.0,Calm,Calm,-,N/A,,Clear,0,2014-02-22 01:55:00
8:15 PM,45.5,34.7,66,30.09,10.0,Calm,Calm,-,N/A,,Clear,0,2014-02-22 02:15:00
8:35 PM,43.9,36.3,75,30.09,10.0,Calm,Calm,-,N/A,,Clear,0,2014-02-22 02:35:00
8:55 PM,43.7,34.2,69,30.10,10.0,Calm,Calm,-,N/A,,Clear,0,2014-02-22 02:55:00
9:15 PM,42.8,34.0,71,30.10,10.0,Calm,Calm,-,N/A,,Clear,0,2014-02-22 03:15:00
9:35 PM,42.8,34.9,74,30.11,10.0,Calm,Calm,-,N/A,,Clear,0,2014-02-22 03:35:00
9:55 PM,42.4,32.9,69,30.11,10.0,Calm,Calm,-,N/A,,Clear,0,2014-02-22 03:55:00
10:15 PM,41.2,34.7,78,30.11,10.0,Calm,Calm,-,N/A,,Clear,0,2014-02-22 04:15:00
10:35 PM,40.5,34.3,79,30.11,10.0,Calm,Calm,-,N/A,,Clear,0,2014-02-22 04:35:00
10:55 PM,39.4,34.7,83,30.11,10.0,Calm,Calm,-,N/A,,Clear,0,2014-02-22 04:55:00
11:15 PM,40.5,34.3,79,30.11,10.0,Calm,Calm,-,N/A,,Clear,0,2014-02-22 05:15:00
11:35 PM,39.9,32.9,76,30.11,10.0,Calm,Calm,-,N/A,,Clear,0,2014-02-22 05:35:00
11:55 PM,38.7,32.9,80,30.11,10.0,Calm,Calm,-,N/A,,Clear,0,2014-02-22 05:55:00